| time (UTC) | temp F | wind direction | speed MPH | gust MPH | rain 1hr in | rain 24hr in | rain mn in | humidity % | barometer mb |
| 20260502194506 | 47 | 274 | 1.0 | 8.0 | 0.00 | 0.00 | 0.00 | 55 | 1016.2 |
| 20260502194050 | 47 | 251 | 1.0 | 6.0 | 0.00 | 0.00 | 0.00 | 54 | 1016.2 |
| 20260502193527 | 47 | 231 | 1.0 | 9.0 | 0.00 | 0.00 | 0.00 | 54 | 1016.2 |
| 20260502193007 | 48 | 217 | 1.0 | 7.0 | 0.00 | 0.00 | 0.00 | 55 | 1016.2 |
| 20260502192552 | 48 | 287 | 0.0 | 7.0 | 0.00 | 0.00 | 0.00 | 55 | 1016.2 |
| 20260502192031 | 49 | 318 | 1.0 | 9.0 | 0.00 | 0.00 | 0.00 | 54 | 1016.2 |
| 20260502191519 | 49 | 307 | 2.0 | 9.0 | 0.00 | 0.00 | 0.00 | 57 | 1016.3 |
| 20260502191057 | 48 | 332 | 1.0 | 9.0 | 0.00 | 0.00 | 0.00 | 57 | 1016.2 |
| 20260502190535 | 48 | 291 | 1.0 | 9.0 | 0.00 | 0.00 | 0.00 | 57 | 1016.2 |
| 20260502190118 | 47 | 283 | 1.0 | 12.0 | 0.00 | 0.00 | 0.00 | 57 | 1016.3 |
| 20260502185546 | 47 | 292 | 4.0 | 12.0 | 0.00 | 0.00 | 0.00 | 57 | 1016.3 |
| 20260502185022 | 47 | 238 | 4.0 | 8.0 | 0.00 | 0.00 | 0.00 | 58 | 1016.3 |
| 20260502184501 | 47 | 295 | 2.0 | 8.0 | 0.00 | 0.00 | 0.00 | 57 | 1016.4 |
| 20260502184045 | 47 | 309 | 2.0 | 11.0 | 0.00 | 0.00 | 0.00 | 58 | 1016.3 |
| 20260502183526 | 47 | 299 | 4.0 | 8.0 | 0.00 | 0.00 | 0.00 | 59 | 1016.4 |
| 20260502183005 | 47 | 302 | 2.0 | 10.0 | 0.00 | 0.00 | 0.00 | 60 | 1016.4 |
| 20260502182548 | 47 | 292 | 4.0 | 10.0 | 0.00 | 0.00 | 0.00 | 58 | 1016.4 |
| 20260502182029 | 48 | 285 | 3.0 | 6.0 | 0.00 | 0.00 | 0.00 | 56 | 1016.4 |
| 20260502181509 | 48 | 23 | 0.0 | 6.0 | 0.00 | 0.00 | 0.00 | 60 | 1016.4 |
| 20260502181053 | 47 | 23 | 0.0 | 8.0 | 0.00 | 0.00 | 0.00 | 61 | 1016.4 |
| 20260502180534 | 47 | 50 | 0.0 | 8.0 | 0.00 | 0.00 | 0.00 | 62 | 1016.4 |
| 20260502180118 | 47 | 291 | 1.0 | 7.0 | 0.00 | 0.00 | 0.00 | 61 | 1016.5 |
| 20260502170113 | 45 | 288 | 0.0 | 6.0 | 0.00 | 0.00 | 0.00 | 66 | 1016.5 |
| 20260502164039 | 43 | 307 | 0.0 | 9.0 | 0.00 | 0.00 | 0.00 | 69 | 1016.7 |
| 20260502163518 | 43 | 282 | 2.0 | 16.0 | 0.00 | 0.00 | 0.00 | 68 | 1016.8 |
| 20260502163112 | 43 | 276 | 2.0 | 16.0 | 0.00 | 0.00 | 0.00 | 69 | 1016.8 |
| 20260502162541 | 43 | 288 | 2.0 | 10.0 | 0.00 | 0.00 | 0.00 | 68 | 1016.9 |
| 20260502162022 | 43 | 284 | 6.0 | 10.0 | 0.00 | 0.00 | 0.00 | 67 | 1016.7 |
| 20260502161501 | 43 | 264 | 5.0 | 9.0 | 0.00 | 0.00 | 0.00 | 69 | 1016.7 |
| 20260502161045 | 43 | 304 | 0.0 | 10.0 | 0.00 | 0.00 | 0.00 | 68 | 1016.7 |
| 20260502160528 | 43 | 267 | 5.0 | 10.0 | 0.00 | 0.00 | 0.00 | 71 | 1016.8 |
| 20260502160109 | 42 | 289 | 2.0 | 9.0 | 0.00 | 0.00 | 0.00 | 69 | 1016.8 |
| 20260502152015 | 43 | 291 | 2.0 | 9.0 | 0.00 | 0.00 | 0.00 | 66 | 1016.7 |
| 20260502151600 | 43 | 321 | 3.0 | 13.0 | 0.00 | 0.00 | 0.00 | 66 | 1016.6 |
| 20260502151041 | 43 | 279 | 1.0 | 8.0 | 0.00 | 0.00 | 0.00 | 70 | 1016.6 |
| 20260502150521 | 42 | 344 | 2.0 | 9.0 | 0.00 | 0.00 | 0.00 | 67 | 1016.7 |
| 20260502150112 | 42 | 307 | 2.0 | 13.0 | 0.00 | 0.00 | 0.00 | 67 | 1016.8 |
| 20260502140104 | 42 | 269 | 3.0 | 8.0 | 0.00 | 0.00 | 0.00 | 62 | 1016.8 |
| 20260502130516 | 40 | 281 | 3.0 | 11.0 | 0.00 | 0.00 | 0.00 | 67 | 1016.9 |
| 20260502130110 | 40 | 345 | 2.0 | 11.0 | 0.00 | 0.00 | 0.00 | 68 | 1017.1 |
| 20260502123504 | 39 | 231 | 3.0 | 10.0 | 0.00 | 0.00 | 0.00 | 71 | 1017.3 |
| 20260502123055 | 39 | 298 | 4.0 | 10.0 | 0.00 | 0.00 | 0.00 | 72 | 1017.2 |
| 20260502122526 | 39 | 279 | 2.0 | 8.0 | 0.00 | 0.00 | 0.00 | 73 | 1017.2 |
| 20260502122006 | 39 | 303 | 3.0 | 9.0 | 0.00 | 0.00 | 0.00 | 73 | 1017.2 |
| 20260502121550 | 39 | 268 | 3.0 | 9.0 | 0.00 | 0.00 | 0.00 | 74 | 1017.2 |
| 20260502121030 | 39 | 302 | 2.0 | 9.0 | 0.00 | 0.00 | 0.00 | 74 | 1017.1 |
| 20260502120510 | 38 | 289 | 2.0 | 7.0 | 0.00 | 0.00 | 0.00 | 75 | 1017.2 |
| 20260502115516 | 38 | 270 | 3.0 | 5.0 | 0.00 | 0.00 | 0.00 | 77 | 1017.2 |
| 20260502115101 | 38 | 266 | 1.0 | 5.0 | 0.00 | 0.00 | 0.00 | 78 | 1017.2 |
| 20260502114540 | 37 | 273 | 1.0 | 5.0 | 0.00 | 0.00 | 0.00 | 78 | 1017.2 |
| 20260502114020 | 37 | 271 | 0.0 | 4.0 | 0.00 | 0.00 | 0.00 | 78 | 1017.2 |
| 20260502113606 | 37 | 271 | 1.0 | 4.0 | 0.00 | 0.00 | 0.00 | 79 | 1017.1 |
| 20260502113045 | 37 | 270 | 0.0 | 3.0 | 0.00 | 0.00 | 0.00 | 79 | 1017.2 |
| 20260502112527 | 36 | 270 | 0.0 | 6.0 | 0.00 | 0.00 | 0.00 | 79 | 1017.1 |
| 20260502112003 | 36 | 269 | 2.0 | 6.0 | 0.00 | 0.00 | 0.00 | 79 | 1017.1 |
| 20260502111552 | 36 | 295 | 1.0 | 7.0 | 0.00 | 0.00 | 0.00 | 80 | 1017.1 |
| 20260502111028 | 36 | 296 | 2.0 | 7.0 | 0.00 | 0.00 | 0.00 | 80 | 1017.1 |
| 20260502110508 | 35 | 252 | 0.0 | 4.0 | 0.00 | 0.00 | 0.00 | 81 | 1017.1 |
| 20260502110052 | 35 | 257 | 0.0 | 3.0 | 0.00 | 0.00 | 0.00 | 81 | 1017.1 |
| 20260502105511 | 35 | 257 | 0.0 | 2.0 | 0.00 | 0.00 | 0.00 | 81 | 1017.1 |
| 20260502105054 | 35 | 257 | 0.0 | 4.0 | 0.00 | 0.00 | 0.00 | 82 | 1017.1 |
| 20260502104535 | 34 | 257 | 0.0 | 2.0 | 0.00 | 0.00 | 0.00 | 82 | 1017.0 |
| 20260502104012 | 34 | 257 | 0.0 | 1.0 | 0.00 | 0.00 | 0.00 | 81 | 1016.8 |
| 20260502103556 | 34 | 257 | 0.0 | 0.0 | 0.00 | 0.00 | 0.00 | 81 | 1016.8 |
| 20260502103036 | 35 | 257 | 0.0 | 1.0 | 0.00 | 0.00 | 0.00 | 81 | 1016.7 |
| 20260502102517 | 35 | 257 | 0.0 | 4.0 | 0.00 | 0.00 | 0.00 | 81 | 1016.5 |
| 20260502102100 | 35 | 257 | 0.0 | 4.0 | 0.00 | 0.00 | 0.00 | 81 | 1016.5 |
| 20260502101543 | 35 | 257 | 0.0 | 2.0 | 0.00 | 0.00 | 0.00 | 81 | 1016.5 |
| 20260502101019 | 35 | 257 | 0.0 | 6.0 | 0.00 | 0.00 | 0.00 | 81 | 1016.4 |
| 20260502100604 | 35 | 257 | 1.0 | 6.0 | 0.00 | 0.00 | 0.00 | 81 | 1016.5 |
| 20260502091018 | 35 | 262 | 0.0 | 5.0 | 0.00 | 0.00 | 0.00 | 83 | 1016.4 |
| 20260502090557 | 35 | 263 | 0.0 | 4.0 | 0.00 | 0.00 | 0.00 | 83 | 1016.3 |
| 20260502071529 | 36 | 246 | 0.0 | 4.0 | 0.00 | 0.00 | 0.00 | 79 | 1016.0 |
| 20260502071009 | 36 | 246 | 0.0 | 5.0 | 0.00 | 0.00 | 0.00 | 79 | 1016.0 |
| 20260502070553 | 37 | 246 | 0.0 | 5.0 | 0.00 | 0.00 | 0.00 | 79 | 1016.0 |
| 20260502070037 | 37 | 275 | 1.0 | 5.0 | 0.00 | 0.00 | 0.00 | 79 | 1016.0 |
| 20260502065559 | 37 | 289 | 0.0 | 4.0 | 0.00 | 0.00 | 0.00 | 79 | 1015.9 |
| 20260502065040 | 37 | 289 | 0.0 | 4.0 | 0.00 | 0.00 | 0.00 | 79 | 1016.0 |
| 20260502064520 | 37 | 290 | 0.0 | 4.0 | 0.00 | 0.00 | 0.00 | 79 | 1016.1 |
| 20260502064101 | 37 | 290 | 0.0 | 4.0 | 0.00 | 0.00 | 0.00 | 79 | 1016.1 |
| 20260502063542 | 37 | 290 | 0.0 | 5.0 | 0.00 | 0.00 | 0.00 | 79 | 1016.2 |
| 20260502063023 | 37 | 290 | 0.0 | 8.0 | 0.00 | 0.00 | 0.00 | 79 | 1016.2 |
| 20260502062504 | 37 | 281 | 0.0 | 5.0 | 0.00 | 0.00 | 0.00 | 79 | 1016.2 |
| 20260502062046 | 37 | 263 | 0.0 | 5.0 | 0.00 | 0.00 | 0.00 | 79 | 1016.1 |
| 20260502061525 | 37 | 264 | 0.0 | 2.0 | 0.00 | 0.00 | 0.00 | 78 | 1016.2 |
| 20260502061005 | 37 | 264 | 0.0 | 2.0 | 0.00 | 0.00 | 0.00 | 78 | 1016.1 |
| 20260502060549 | 37 | 264 | 0.0 | 4.0 | 0.00 | 0.00 | 0.00 | 78 | 1016.1 |
| 20260502060012 | 37 | 265 | 0.0 | 2.0 | 0.00 | 0.00 | 0.00 | 78 | 1016.1 |
| 20260502055556 | 37 | 265 | 0.0 | 2.0 | 0.00 | 0.00 | 0.00 | 78 | 1016.0 |
| 20260502055036 | 37 | 265 | 0.0 | 2.0 | 0.00 | 0.00 | 0.00 | 78 | 1016.0 |
| 20260502054516 | 37 | 265 | 0.0 | 2.0 | 0.00 | 0.00 | 0.00 | 78 | 1016.1 |
| 20260502054059 | 37 | 265 | 0.0 | 2.0 | 0.00 | 0.00 | 0.00 | 78 | 1016.2 |
| 20260502053540 | 38 | 265 | 0.0 | 2.0 | 0.00 | 0.00 | 0.00 | 78 | 1016.1 |
| 20260502053020 | 38 | 271 | 0.0 | 0.0 | 0.00 | 0.00 | 0.00 | 78 | 1016.2 |
| 20260502052607 | 38 | 271 | 0.0 | 1.0 | 0.00 | 0.00 | 0.00 | 77 | 1016.2 |
| 20260502052047 | 38 | 271 | 0.0 | 2.0 | 0.00 | 0.00 | 0.00 | 77 | 1016.1 |
| 20260502051522 | 38 | 271 | 0.0 | 2.0 | 0.00 | 0.00 | 0.00 | 77 | 1016.0 |
| 20260502051003 | 38 | 271 | 0.0 | 2.0 | 0.00 | 0.00 | 0.00 | 77 | 1016.0 |
| 20260502050546 | 38 | 271 | 0.0 | 1.0 | 0.00 | 0.00 | 0.00 | 76 | 1016.0 |
| 20260502050003 | 38 | 271 | 0.0 | 4.0 | 0.00 | 0.00 | 0.00 | 76 | 1015.7 |
| 20260502045547 | 38 | 271 | 0.0 | 4.0 | 0.00 | 0.00 | 0.00 | 76 | 1015.8 |
| 20260502045027 | 39 | 271 | 0.0 | 1.0 | 0.00 | 0.00 | 0.00 | 76 | 1015.8 |
| 20260502044508 | 39 | 271 | 0.0 | 4.0 | 0.00 | 0.00 | 0.00 | 76 | 1015.7 |
| 20260502044053 | 39 | 271 | 1.0 | 4.0 | 0.00 | 0.00 | 0.00 | 75 | 1015.7 |
| 20260502043531 | 39 | 271 | 0.0 | 2.0 | 0.00 | 0.00 | 0.00 | 75 | 1015.6 |
| 20260502043011 | 39 | 271 | 0.0 | 4.0 | 0.00 | 0.00 | 0.00 | 74 | 1015.4 |
| 20260502042555 | 39 | 271 | 1.0 | 4.0 | 0.00 | 0.00 | 0.00 | 74 | 1015.5 |
| 20260502042036 | 40 | 271 | 0.0 | 2.0 | 0.00 | 0.00 | 0.00 | 73 | 1015.4 |
| 20260502041518 | 40 | 271 | 0.0 | 8.0 | 0.00 | 0.00 | 0.00 | 73 | 1015.5 |
| 20260502041058 | 40 | 271 | 0.0 | 8.0 | 0.00 | 0.00 | 0.00 | 72 | 1015.5 |
| 20260502040538 | 40 | 279 | 0.0 | 6.0 | 0.00 | 0.00 | 0.00 | 72 | 1015.4 |
| 20260502040002 | 40 | 275 | 0.0 | 7.0 | 0.00 | 0.00 | 0.00 | 71 | 1015.4 |
| 20260502035546 | 40 | 272 | 1.0 | 7.0 | 0.00 | 0.00 | 0.00 | 71 | 1015.4 |
| 20260502035025 | 41 | 296 | 1.0 | 6.0 | 0.00 | 0.00 | 0.00 | 71 | 1015.4 |
| 20260502034505 | 41 | 288 | 1.0 | 9.0 | 0.00 | 0.00 | 0.00 | 71 | 1015.4 |
| 20260502034049 | 41 | 273 | 2.0 | 11.0 | 0.00 | 0.00 | 0.00 | 71 | 1015.5 |
| 20260502033530 | 41 | 301 | 0.0 | 11.0 | 0.00 | 0.00 | 0.00 | 70 | 1015.5 |
| 20260502033012 | 42 | 275 | 0.0 | 10.0 | 0.00 | 0.00 | 0.00 | 70 | 1015.4 |
| 20260502032552 | 42 | 274 | 4.0 | 10.0 | 0.00 | 0.00 | 0.00 | 69 | 1015.4 |
| 20260502032033 | 42 | 272 | 0.0 | 9.0 | 0.00 | 0.00 | 0.00 | 69 | 1015.3 |
| 20260502031513 | 43 | 287 | 2.0 | 12.0 | 0.00 | 0.00 | 0.00 | 68 | 1015.2 |
| 20260502031057 | 43 | 279 | 2.0 | 13.0 | 0.00 | 0.00 | 0.00 | 68 | 1015.2 |
| 20260502030537 | 43 | 273 | 4.0 | 13.0 | 0.00 | 0.00 | 0.00 | 67 | 1015.2 |
| 20260502030120 | 43 | 277 | 0.0 | 11.0 | 0.00 | 0.00 | 0.00 | 67 | 1015.1 |
| 20260502025542 | 43 | 280 | 2.0 | 8.0 | 0.00 | 0.00 | 0.00 | 66 | 1015.1 |
| 20260502025022 | 44 | 278 | 3.0 | 8.0 | 0.00 | 0.00 | 0.00 | 66 | 1015.1 |
| 20260502024501 | 44 | 273 | 0.0 | 9.0 | 0.00 | 0.00 | 0.00 | 66 | 1015.0 |
| 20260502024045 | 44 | 278 | 3.0 | 9.0 | 0.00 | 0.00 | 0.00 | 66 | 1015.0 |
| 20260502023526 | 44 | 239 | 1.0 | 10.0 | 0.00 | 0.00 | 0.00 | 67 | 1015.0 |
| 20260502023006 | 44 | 287 | 3.0 | 10.0 | 0.00 | 0.00 | 0.00 | 67 | 1014.9 |
| 20260502022549 | 44 | 271 | 1.0 | 8.0 | 0.00 | 0.00 | 0.00 | 71 | 1014.9 |
| 20260502022029 | 44 | 270 | 3.0 | 7.0 | 0.00 | 0.00 | 0.00 | 72 | 1014.9 |
| 20260502021509 | 44 | 264 | 3.0 | 8.0 | 0.00 | 0.00 | 0.00 | 72 | 1014.9 |
| 20260502021054 | 44 | 264 | 3.0 | 8.0 | 0.00 | 0.00 | 0.00 | 72 | 1014.8 |
| 20260502020535 | 44 | 248 | 3.0 | 7.0 | 0.00 | 0.00 | 0.00 | 73 | 1014.7 |
| 20260502020119 | 44 | 225 | 1.0 | 6.0 | 0.00 | 0.00 | 0.00 | 74 | 1014.7 |
| 20260502015540 | 44 | 248 | 1.0 | 6.0 | 0.00 | 0.00 | 0.00 | 74 | 1014.7 |
| 20260502015022 | 44 | 235 | 2.0 | 8.0 | 0.00 | 0.00 | 0.00 | 73 | 1014.8 |
| 20260502014604 | 44 | 236 | 1.0 | 10.0 | 0.00 | 0.00 | 0.00 | 73 | 1014.7 |
| 20260502014043 | 44 | 208 | 5.0 | 10.0 | 0.00 | 0.00 | 0.00 | 73 | 1014.7 |
| 20260502013523 | 44 | 258 | 3.0 | 7.0 | 0.00 | 0.00 | 0.00 | 74 | 1014.5 |
| 20260502013004 | 44 | 233 | 0.0 | 6.0 | 0.00 | 0.00 | 0.00 | 74 | 1014.5 |
| 20260502012548 | 44 | 239 | 3.0 | 6.0 | 0.00 | 0.00 | 0.00 | 74 | 1014.5 |
| 20260502012028 | 44 | 237 | 1.0 | 5.0 | 0.00 | 0.00 | 0.00 | 74 | 1014.4 |
| 20260502011508 | 44 | 237 | 1.0 | 5.0 | 0.00 | 0.00 | 0.00 | 74 | 1014.3 |
| 20260502011052 | 44 | 239 | 2.0 | 6.0 | 0.00 | 0.00 | 0.00 | 74 | 1014.3 |
| 20260502010531 | 44 | 243 | 0.0 | 7.0 | 0.00 | 0.00 | 0.00 | 74 | 1014.1 |
| 20260502010115 | 44 | 249 | 2.0 | 7.0 | 0.00 | 0.00 | 0.00 | 74 | 1014.1 |
| 20260502005537 | 45 | 249 | 1.0 | 6.0 | 0.00 | 0.00 | 0.00 | 74 | 1014.0 |
| 20260502005020 | 45 | 250 | 1.0 | 5.0 | 0.00 | 0.00 | 0.00 | 74 | 1014.0 |
| 20260502004604 | 45 | 250 | 0.0 | 5.0 | 0.00 | 0.00 | 0.00 | 74 | 1014.0 |
| 20260502004042 | 45 | 250 | 1.0 | 5.0 | 0.00 | 0.00 | 0.00 | 74 | 1013.8 |
| 20260502003521 | 45 | 246 | 1.0 | 5.0 | 0.00 | 0.00 | 0.00 | 74 | 1013.7 |
| 20260502003001 | 45 | 250 | 1.0 | 7.0 | 0.00 | 0.00 | 0.00 | 74 | 1013.7 |
| 20260502002545 | 45 | 250 | 2.0 | 8.0 | 0.00 | 0.00 | 0.00 | 73 | 1013.7 |
| 20260502002028 | 45 | 217 | 2.0 | 8.0 | 0.00 | 0.00 | 0.00 | 73 | 1013.6 |
| 20260502001508 | 45 | 248 | 1.0 | 5.0 | 0.00 | 0.00 | 0.00 | 72 | 1013.5 |
| 20260502001049 | 46 | 244 | 1.0 | 5.0 | 0.00 | 0.00 | 0.00 | 72 | 1013.6 |
| 20260502000530 | 46 | 244 | 1.0 | 5.0 | 0.00 | 0.00 | 0.00 | 73 | 1013.6 |
| 20260502000113 | 46 | 243 | 2.0 | 5.0 | 0.00 | 0.00 | 0.00 | 72 | 1013.5 |
| 20260501235537 | 46 | 241 | 1.0 | 5.0 | 0.00 | 0.00 | 0.00 | 72 | 1013.4 |
| 20260501235015 | 46 | 242 | 1.0 | 5.0 | 0.00 | 0.00 | 0.00 | 72 | 1013.4 |
| 20260501234600 | 46 | 242 | 0.0 | 4.0 | 0.00 | 0.00 | 0.00 | 72 | 1013.3 |
| 20260501234039 | 46 | 244 | 0.0 | 6.0 | 0.00 | 0.00 | 0.00 | 71 | 1013.3 |
| 20260501233517 | 46 | 244 | 2.0 | 6.0 | 0.00 | 0.00 | 0.00 | 70 | 1013.3 |
| 20260501233101 | 46 | 246 | 1.0 | 5.0 | 0.00 | 0.00 | 0.00 | 70 | 1013.1 |
| 20260501232541 | 47 | 229 | 0.0 | 5.0 | 0.00 | 0.00 | 0.00 | 70 | 1013.1 |
| 20260501232020 | 47 | 229 | 0.0 | 5.0 | 0.00 | 0.00 | 0.00 | 69 | 1013.1 |
| 20260501231639 | 47 | 237 | 0.0 | 4.0 | 0.00 | 0.00 | 0.00 | 69 | 1013.0 |
| 20260501231048 | 47 | 237 | 0.0 | 5.0 | 0.00 | 0.00 | 0.00 | 69 | 1013.0 |
| 20260501230524 | 48 | 236 | 2.0 | 5.0 | 0.00 | 0.00 | 0.00 | 68 | 1013.1 |
| 20260501230108 | 48 | 233 | 0.0 | 5.0 | 0.00 | 0.00 | 0.00 | 68 | 1013.1 |
| 20260501225531 | 48 | 233 | 0.0 | 7.0 | 0.00 | 0.00 | 0.00 | 69 | 1013.0 |
| 20260501225014 | 48 | 264 | 2.0 | 7.0 | 0.00 | 0.00 | 0.00 | 69 | 1013.1 |
| 20260501224603 | 48 | 241 | 1.0 | 6.0 | 0.00 | 0.00 | 0.00 | 69 | 1013.1 |
| 20260501224033 | 48 | 233 | 1.0 | 5.0 | 0.00 | 0.00 | 0.00 | 68 | 1013.0 |
| 20260501223513 | 48 | 254 | 1.0 | 5.0 | 0.00 | 0.00 | 0.00 | 67 | 1013.0 |
| 20260501223057 | 49 | 248 | 0.0 | 5.0 | 0.00 | 0.00 | 0.00 | 67 | 1013.0 |
| 20260501222537 | 49 | 238 | 0.0 | 7.0 | 0.00 | 0.00 | 0.00 | 65 | 1013.0 |
| 20260501222018 | 49 | 239 | 2.0 | 7.0 | 0.00 | 0.00 | 0.00 | 62 | 1013.0 |
| 20260501221612 | 49 | 227 | 0.0 | 3.0 | 0.00 | 0.00 | 0.00 | 60 | 1013.0 |
| 20260501221041 | 49 | 227 | 0.0 | 2.0 | 0.00 | 0.00 | 0.00 | 60 | 1012.9 |
| 20260501220521 | 49 | 227 | 0.0 | 6.0 | 0.00 | 0.00 | 0.00 | 60 | 1012.9 |
| 20260501220105 | 49 | 227 | 1.0 | 6.0 | 0.00 | 0.00 | 0.00 | 59 | 1012.8 |
| 20260501215528 | 49 | 184 | 0.0 | 4.0 | 0.00 | 0.00 | 0.00 | 60 | 1012.8 |
| 20260501215008 | 49 | 184 | 0.0 | 4.0 | 0.00 | 0.00 | 0.00 | 59 | 1012.8 |
| 20260501214551 | 49 | 184 | 0.0 | 3.0 | 0.00 | 0.00 | 0.00 | 58 | 1012.8 |
| 20260501214037 | 49 | 183 | 0.0 | 2.0 | 0.00 | 0.00 | 0.00 | 59 | 1012.8 |
| 20260501213511 | 49 | 183 | 0.0 | 2.0 | 0.00 | 0.00 | 0.00 | 59 | 1012.7 |
| 20260501213100 | 48 | 183 | 0.0 | 1.0 | 0.00 | 0.00 | 0.00 | 59 | 1012.7 |
| 20260501212535 | 48 | 183 | 0.0 | 1.0 | 0.00 | 0.00 | 0.00 | 60 | 1012.8 |
| 20260501212016 | 48 | 183 | 0.0 | 2.0 | 0.00 | 0.00 | 0.00 | 60 | 1012.8 |
| 20260501211612 | 48 | 183 | 0.0 | 4.0 | 0.00 | 0.00 | 0.00 | 60 | 1012.8 |
| 20260501211039 | 48 | 239 | 0.0 | 2.0 | 0.00 | 0.00 | 0.00 | 60 | 1012.8 |
| 20260501210519 | 48 | 239 | 0.0 | 2.0 | 0.00 | 0.00 | 0.00 | 60 | 1012.8 |
| 20260501210104 | 48 | 239 | 0.0 | 4.0 | 0.00 | 0.00 | 0.00 | 61 | 1012.8 |
| 20260501205525 | 48 | 239 | 0.0 | 4.0 | 0.00 | 0.00 | 0.00 | 61 | 1012.8 |
| 20260501205007 | 48 | 239 | 0.0 | 3.0 | 0.00 | 0.00 | 0.00 | 61 | 1012.7 |
| 20260501204550 | 48 | 239 | 0.0 | 4.0 | 0.00 | 0.00 | 0.00 | 62 | 1012.6 |
| 20260501204029 | 48 | 239 | 0.0 | 4.0 | 0.00 | 0.00 | 0.00 | 61 | 1012.7 |
| 20260501203509 | 48 | 239 | 0.0 | 2.0 | 0.00 | 0.00 | 0.00 | 60 | 1012.7 |
| 20260501203054 | 48 | 239 | 0.0 | 2.0 | 0.00 | 0.00 | 0.00 | 61 | 1012.7 |
| 20260501202533 | 48 | 239 | 0.0 | 2.0 | 0.00 | 0.00 | 0.00 | 62 | 1012.6 |
| 20260501202013 | 48 | 239 | 0.0 | 1.0 | 0.00 | 0.00 | 0.00 | 62 | 1012.7 |
| 20260501201558 | 48 | 239 | 0.0 | 1.0 | 0.00 | 0.00 | 0.00 | 63 | 1012.7 |
| 20260501201037 | 48 | 239 | 0.0 | 2.0 | 0.00 | 0.00 | 0.00 | 62 | 1012.7 |
| 20260501200517 | 48 | 239 | 1.0 | 2.0 | 0.00 | 0.00 | 0.00 | 62 | 1012.7 |
| 20260501195523 | 48 | 235 | 1.0 | 4.0 | 0.00 | 0.00 | 0.00 | 62 | 1012.6 |
| 20260501195003 | 48 | 234 | 0.0 | 4.0 | 0.00 | 0.00 | 0.00 | 63 | 1012.7 |